Weather History for PAFA - December, 2010

Change the Weather History Date:

Thursday, December 9, 2010

  Actual Average Record
Temperature  
Mean Temperature -21 °F -3 °F  
Max Temperature -13 °F 6 °F 42 °F (1960)
Min Temperature -30 °F -12 °F -55 °F (1935)
Degree Days  
Heating Degree Days 86 68  
Month to date heating degree days 713 609  
Since 1 July heating degree days 4256 4740  
Cooling Degree Days 0 0  
Month to date cooling degree days 0 0  
Year to date cooling degree days 66 61  
Moisture  
Dew Point -27 °F    
Average Humidity 76    
Maximum Humidity 84    
Minimum Humidity 66    
Precipitation  
Precipitation T in 0.02 in 0.37 in (1972)
Month to date precipitation 0.04 0.17  
Year to date precipitation 10.12 10.34  
Snow  
Snow T in 0.30 in 4.80 in (1972)
Month to date snowfall 0.6 3.3  
Since 1 July snowfall 19.9 29.1  
Snow Depth 10.00 in    
Sea Level Pressure  
Sea Level Pressure 30.09 in    
Wind  
Wind Speed 0 mph (North)    
Max Wind Speed 4 mph    
Max Gust Speed -    
Visibility 7 miles    
Events Fog , Snow    
T = Trace of Precipitation, MM = Missing Value Source: NWS Daily Summary

Daily Weather History Graph

Daily Weather History Graph

Search for Another Location

Airport or City:

Trip Planner

Search our weather history database for the weather conditions in past years. The results will help you decide how hot, cold, wet, or windy it might be!

Date:

Astronomy

Dec. 09, 2010 Rise Set
Actual Time 10:40 AM AKST 2:46 PM AKST
Civil Twilight 9:19 AM AKST 4:07 PM AKST
Nautical Twilight 8:09 AM AKST 5:17 PM AKST
Astronomical Twilight 7:08 AM AKST 6:18 PM AKST
Moon 12:39 PM AKST (12/9) 8:14 PM AKST (12/9)
Length of Visible Light 6h 47m
Length of Day
4h 06m
Waxing Crescent, 17% of the Moon is Illuminated
Dec 9
Waxing Crescent
Dec 13
First Quarter
Dec 20
Full
Dec 27
Last Quarter
Jan 4
New

Hourly Weather History & Observations

Time (AKST) Temp. Windchill Dew Point Humidity Pressure Visibility Wind Dir Wind Speed Gust Speed Precip Events Conditions
12:53 AM -26.0 °F - -31.0 °F 77% 30.09 in 10.0 mi Calm Calm - N/A   Clear
1:53 AM -27.0 °F - -33.0 °F 73% 30.09 in 10.0 mi Calm Calm - N/A   Clear
2:53 AM -26.0 °F - -34.1 °F 66% 30.09 in 10.0 mi Calm Calm - N/A   Clear
3:53 AM -29.9 °F - - N/A% 30.10 in 10.0 mi Calm Calm - N/A   Clear
4:53 AM -27.9 °F - -34.1 °F 73% 30.10 in 8.0 mi Calm Calm - N/A   Clear
5:53 AM -27.9 °F - -33.0 °F 77% 30.09 in 8.0 mi Calm Calm - N/A   Partly Cloudy
6:53 AM -27.9 °F - -34.1 °F 73% 30.10 in 8.0 mi Calm Calm - N/A   Partly Cloudy
7:53 AM -29.9 °F - - N/A% 30.10 in 7.0 mi Calm Calm - N/A Fog Patches of Fog
8:53 AM -26.0 °F - -32.1 °F 73% 30.10 in 5.0 mi Calm Calm - N/A Fog Scattered Clouds
9:53 AM -23.1 °F - -27.9 °F 78% 30.11 in 7.0 mi Calm Calm - N/A Fog Patches of Fog
10:18 AM -23.8 °F - -29.2 °F 76% 30.05 in 6.0 mi Calm Calm - N/A Fog Mostly Cloudy
10:53 AM -23.1 °F - -29.0 °F 74% 30.11 in 6.0 mi Calm Calm - N/A Fog Mostly Cloudy
11:53 AM -25.1 °F - -29.9 °F 78% 30.11 in 7.0 mi Calm Calm - N/A Fog Patches of Fog
12:14 PM -23.8 °F - -29.2 °F 76% 30.03 in 7.0 mi Calm Calm - N/A Fog Patches of Fog
12:53 PM -26.0 °F - -32.1 °F 73% 30.09 in 7.0 mi Calm Calm - N/A   Scattered Clouds
1:53 PM -24.0 °F - -29.0 °F 77% 30.09 in 7.0 mi Calm Calm - N/A   Scattered Clouds
2:53 PM -26.0 °F -37.5 °F -31.0 °F 77% 30.09 in 7.0 mi North 3.5 mph - N/A   Scattered Clouds
3:53 PM -22.0 °F - -26.0 °F 82% 30.09 in 7.0 mi Calm Calm - N/A   Mostly Cloudy
4:53 PM -18.9 °F - -24.0 °F 78% 30.08 in 7.0 mi Calm Calm - N/A   Mostly Cloudy
5:53 PM -18.0 °F - -23.1 °F 78% 30.08 in 7.0 mi Calm Calm - N/A   Mostly Cloudy
6:50 PM -16.6 °F - -20.2 °F 84% 30.02 in 6.0 mi Calm Calm - N/A   Mostly Cloudy
6:53 PM -17.0 °F - -20.9 °F 82% 30.09 in 6.0 mi Calm Calm - N/A   Mostly Cloudy
7:53 PM -16.1 °F - -20.9 °F 79% 30.08 in 7.0 mi Calm Calm - N/A   Mostly Cloudy
8:53 PM -15.0 °F - -20.9 °F 75% 30.08 in 7.0 mi Calm Calm - 0.00 in Snow Light Snow
9:53 PM -14.1 °F - -20.0 °F 75% 30.08 in 7.0 mi Calm Calm - 0.00 in Snow Light Snow
10:53 PM -14.1 °F - -18.9 °F 79% 30.09 in 6.0 mi Calm Calm - 0.00 in Snow Light Snow
11:53 PM -13.0 °F - -18.0 °F 78% 30.09 in 5.0 mi Calm Calm - 0.00 in Snow Light Snow